Location: Newark
(15.4608°S, 41.1635°W)
Time: 21:22:02
(UTC+00:00)

Vanguard 3 - Pass Details

Date: 04 March 2021
Orbit: 508 x 3262 km, 33.3° (Epoch: 12 April)

Event Time Altitude Azimuth Distance (km) Brightness Sun altitude
Exits shadow 06:39:30 16° 186° (S) 1,927 9.1 -30.6°
Maximum altitude 06:39:39 16° 184° (S) 1,940 9.2 -30.6°
Drops below altitude 10° 06:43:18 10° 148° (SSE) 2,705 10.4 -29.7°
Sets 06:47:56 0° 128° (SE) 4,210 11.8 -28.7°
